Ozark, AL

10:23 PM CDT on July 26, 2017 (GMT -0500)
Cairns Army Air Field

Weather History for KOZR - November, 2013

Change the Weather History Date:

Friday, November 8, 2013

  Actual Average Record
Temperature  
Mean Temperature 53 °F -  
Max Temperature 64 °F 69 °F 82 °F (2005)
Min Temperature 42 °F 47 °F 30 °F (2007)
Degree Days  
Heating Degree Days 12    
Growing Degree Days 3 (Base 50)    
Moisture  
Dew Point 35 °F    
Average Humidity 57    
Maximum Humidity 83    
Minimum Humidity 32    
Precipitation  
Precipitation 0.00 in - - ()
Sea Level Pressure  
Sea Level Pressure 30.24 in    
Wind  
Wind Speed 10 mph (NNE)    
Max Wind Speed 15 mph    
Max Gust Speed 22 mph    
Visibility 10 miles    
Events      
Averages and records for this station are not official NWS values.
T = Trace of Precipitation, MM = Missing Value Source: NWS Daily Summary

Daily Weather History Graph

Daily Weather History Graph

Search for Another Location

Airport or City:

Trip Planner

Search our weather history database for the weather conditions in past years. The results will help you decide how hot, cold, wet, or windy it might be!

Date:

Astronomy

Nov. 08, 2013 Rise Set
Actual Time 6:04 AM CST 4:48 PM CST
Civil Twilight 5:39 AM CST 5:13 PM CST
Nautical Twilight 5:10 AM CST 5:42 PM CST
Astronomical Twilight 4:41 AM CST 6:11 PM CST
Moon 10:59 AM CST (11/8) 10:07 PM CST (11/8)
Length of Visible Light 11h 34m
Length of Day
10h 44m
Waxing Crescent, 33% of the Moon is Illuminated
Nov 8
Waxing Crescent
Nov 9
First Quarter
Nov 17
Full
Nov 25
Last Quarter
Dec 2
New

Hourly Weather History & Observations

Time (CST) Temp. Windchill Dew Point Humidity Pressure Visibility Wind Dir Wind Speed Gust Speed Precip Events Conditions
12:58 AM 48.0 °F - 35.1 °F 61% 30.21 in 10.0 mi North 10.4 mph 18.4 mph N/A   Clear
1:58 AM 46.6 °F - 34.7 °F 63% 30.21 in 10.0 mi North 13.8 mph - N/A   Clear
2:58 AM 45.9 °F 39.4 °F 33.6 °F 62% 30.21 in 10.0 mi North 15.0 mph 21.9 mph N/A   Clear
3:58 AM 45.0 °F 38.9 °F 32.9 °F 63% 30.22 in 10.0 mi North 12.7 mph - N/A   Clear
4:58 AM 43.5 °F 37.9 °F 32.4 °F 65% 30.24 in 10.0 mi North 10.4 mph - N/A   Clear
5:58 AM 42.4 °F 36.5 °F 32.0 °F 67% 30.26 in 10.0 mi North 10.4 mph - N/A   Clear
6:58 AM 43.5 °F 37.9 °F 32.0 °F 64% 30.29 in 10.0 mi NNE 10.4 mph - N/A   Clear
7:58 AM 47.7 °F - 31.8 °F 54% 30.30 in 10.0 mi NNE 12.7 mph - N/A   Clear
8:58 AM 51.6 °F - 32.2 °F 47% 30.31 in 10.0 mi NNE 9.2 mph - N/A   Clear
9:58 AM 56.1 °F - 32.9 °F 41% 30.30 in 10.0 mi NE 11.5 mph 18.4 mph N/A   Clear
10:58 AM 59.0 °F - 33.6 °F 38% 30.28 in 10.0 mi ENE 11.5 mph - N/A   Clear
11:58 AM 61.7 °F - 34.7 °F 36% 30.25 in 10.0 mi NNE 12.7 mph - N/A   Clear
12:58 PM 63.3 °F - 35.4 °F 35% 30.23 in 10.0 mi ENE 10.4 mph - N/A   Clear
1:58 PM 64.6 °F - 34.3 °F 32% 30.21 in 10.0 mi NE 9.2 mph - N/A   Clear
2:58 PM 64.4 °F - 34.7 °F 33% 30.21 in 10.0 mi NE 10.4 mph - N/A   Clear
3:58 PM 62.6 °F - 36.7 °F 38% 30.21 in 10.0 mi NNE 8.1 mph - N/A   Clear
4:58 PM 57.0 °F - 37.8 °F 49% 30.22 in 10.0 mi NNE 4.6 mph - N/A   Clear
5:58 PM 53.1 °F - 38.7 °F 58% 30.22 in 10.0 mi NNE 5.8 mph - N/A   Clear
6:58 PM 50.5 °F - 38.3 °F 63% 30.23 in 10.0 mi NNE 6.9 mph - N/A   Clear
7:58 PM 49.3 °F - 38.1 °F 65% 30.24 in 10.0 mi NNE 5.8 mph - N/A   Clear
8:58 PM 45.5 °F 43.2 °F 39.4 °F 79% 30.25 in 8.0 mi NE 4.6 mph - N/A   Clear
9:58 PM 44.6 °F 41.4 °F 39.0 °F 81% 30.26 in 7.0 mi NE 5.8 mph - N/A   Clear
10:58 PM 44.6 °F 42.2 °F 39.0 °F 81% 30.25 in 7.0 mi NE 4.6 mph - N/A   Clear
11:58 PM 42.6 °F 38.4 °F 37.9 °F 83% 30.24 in 6.0 mi NE 6.9 mph - N/A   Haze